JE7ZDC Weather Reports


time (UTC)temp
F
wind
direction
speed
knots
gust
knots
rain 1hr
in
rain 24hr
in
rain mn
in
humidity
%
barometer
mb
20260510033003 72 281 0.9 3.5 0.00 0.00 0.00 35 1018.6
20260510031603 72 175 0.0 2.6 0.00 0.00 0.00 35 1018.8
20260510030057 71 219 0.9 6.1 0.00 0.00 0.00 34 1018.8
20260510024555 70 330 0.0 3.5 0.00 0.00 0.00 37 1018.9
20260510023053 70 87 0.0 2.6 0.00 0.00 0.00 36 1019.2
20260510021552 69 45 0.0 3.5 0.00 0.00 0.00 37 1019.2
20260510020047 70 309 0.0 2.6 0.00 0.00 0.00 35 1019.3
20260510014544 69 124 0.0 1.7 0.00 0.00 0.00 38 1019.4
20260510013040 67 238 0.0 2.6 0.00 0.00 0.00 43 1019.5
20260510011540 66 55 0.9 6.1 0.00 0.00 0.00 38 1019.7
20260510010038 66 243 0.0 2.6 0.00 0.00 0.00 41 1020.0
20260510004536 65 158 0.0 1.7 0.00 0.00 0.00 44 1020.0
20260510003036 66 82 0.0 2.6 0.00 0.00 0.00 44 1020.3
20260510001534 66 112 0.0 1.7 0.00 0.00 0.00 45 1020.2
20260510000030 65 119 0.0 2.6 0.00 0.00 0.00 45 1020.4
20260509234534 63 65 0.0 2.6 0.00 0.00 0.00 49 1020.4
20260509233026 63 255 0.0 2.6 0.00 0.00 0.00 52 1020.3
20260509231524 62 162 0.0 1.7 0.00 0.00 0.00 55 1020.4
20260509230022 62 222 0.0 1.7 0.00 0.00 0.00 55 1020.2
20260509224518 61 112 0.0 0.9 0.00 0.00 0.00 60 1020.3
20260509223019 60 207 0.0 1.7 0.00 0.00 0.00 57 1020.2
20260509221519 59 233 0.0 0.9 0.00 0.00 0.00 63 1020.1
20260509220012 58 120 0.0 0.0 0.00 0.00 0.00 67 1020.1
20260509214505 55 120 0.0 0.0 0.00 0.00 0.00 72 1020.1
20260509213002 52 117 0.0 0.0 0.00 0.00 0.00 78 1019.9
20260509211501 49 117 0.0 0.0 0.00 0.00 0.00 81 1019.7
20260509210115 47 117 0.0 0.0 0.00 0.00 0.00 83 1019.7
20260509204558 0 0.0 0.0 0.00 0.01 0.00 1019.4
20260509203050 0 0.0 0.0 0.00 0.01 0.00 1019.2
20260509201553 0 0.0 0.0 0.00 0.01 0.00 1018.8
20260509200050 0 0.0 0.0 0.00 0.01 0.00 1018.6
20260509194535 0 0.0 0.0 0.00 0.01 0.00 1018.4
20260509193032 0 0.0 0.0 0.00 0.01 0.00 1018.2
20260509191529 44 104 0.0 2.6 0.00 0.01 0.00 84 1018.0
20260509190026 44 128 0.0 0.0 0.00 0.01 0.00 86 1017.8
20260509184527 44 122 0.0 0.9 0.00 0.01 0.00 85 1017.5
20260509183020 45 122 0.0 0.9 0.00 0.01 0.00 83 1017.4
20260509181517 45 121 0.0 0.0 0.00 0.01 0.00 83 1017.3
20260509180014 46 122 0.0 0.9 0.00 0.01 0.00 82 1017.1
20260509174513 46 118 0.0 0.9 0.00 0.01 0.00 81 1017.1
20260509173010 46 92 0.0 0.9 0.00 0.01 0.00 81 1016.9
20260509171520 46 56 0.0 2.6 0.00 0.01 0.00 80 1016.8
20260509170020 47 115 0.0 0.9 0.00 0.01 0.00 79 1016.8
20260509164503 47 122 0.0 2.6 0.00 0.01 0.00 78 1016.5
20260509163100 47 114 0.0 0.9 0.00 0.01 0.00 78 1016.4
20260509163002 47 253 0.0 0.9 0.00 0.01 0.00 78 1016.4
20260509161601 48 94 0.0 0.0 0.00 0.01 0.00 77 1016.3
20260509160056 48 122 0.0 0.0 0.00 0.01 0.00 76 1016.2
20260509154558 49 110 0.0 0.9 0.00 0.01 0.00 74 1016.2
20260509153054 50 110 0.0 0.9 0.00 0.01 0.00 70 1015.9
20260509151546 51 110 0.0 0.9 0.00 0.01 0.00 67 1015.9
20260509150048 52 105 0.0 1.7 0.00 0.01 0.00 64 1015.7
20260509144540 53 100 0.0 0.9 0.00 0.01 0.01 63 1015.8
20260509143039 53 179 0.0 2.6 0.00 0.01 0.01 59 1015.6
20260509141537 54 267 0.0 3.5 0.00 0.01 0.01 59 1015.4
20260509140036 54 264 0.0 4.3 0.00 0.01 0.01 59 1015.3
20260509134545 55 282 0.0 5.2 0.00 0.01 0.01 59 1015.3
20260509133033 55 268 0.9 6.1 0.00 0.01 0.01 58 1015.1
20260509131546 55 201 0.9 5.2 0.00 0.01 0.01 58 1014.9
20260509130037 55 290 0.0 9.6 0.00 0.01 0.01 58 1014.9
20260509124530 55 226 0.0 7.8 0.00 0.02 0.01 58 1014.7
20260509123028 55 257 0.9 7.0 0.00 0.02 0.01 59 1014.5
20260509121529 55 210 0.9 5.2 0.00 0.02 0.01 59 1014.5
20260509120025 56 119 0.9 9.6 0.00 0.02 0.01 59 1014.2
20260509114527 56 247 0.9 7.0 0.00 0.04 0.01 59 1014.2
20260509113022 56 214 0.9 7.8 0.00 0.04 0.01 58 1014.1
20260509111521 56 248 1.7 7.0 0.00 0.04 0.01 58 1013.8
20260509110019 56 263 1.7 9.6 0.00 0.04 0.01 59 1013.5
20260509104518 56 232 0.0 6.1 0.00 0.05 0.01 60 1013.4
20260509103017 56 11 2.6 10.4 0.00 0.05 0.01 59 1013.2
20260509101528 56 262 0.9 11.3 0.00 0.05 0.01 59 1012.8
20260509100021 56 302 1.7 12.2 0.00 0.05 0.01 61 1012.7
20260509094516 56 275 6.1 14.8 0.00 0.06 0.01 59 1012.6
20260509093011 56 276 1.7 11.3 0.00 0.06 0.01 59 1012.3
20260509091517 57 281 2.6 12.2 0.00 0.06 0.01 55 1011.8
20260509090007 58 309 3.5 9.6 0.00 0.14 0.01 53 1011.9
20260509084512 59 272 0.9 6.1 0.00 0.14 0.01 51 1011.9
20260509083005 60 257 4.3 13.9 0.00 0.14 0.01 46 1011.7
20260509081501 60 285 3.5 9.6 0.00 0.14 0.01 44 1011.1
20260509080059 61 265 1.7 7.8 0.00 0.14 0.01 44 1010.9
20260509074606 62 236 5.2 11.3 0.00 0.14 0.01 42 1010.5
20260509073101 63 283 1.7 8.7 0.00 0.14 0.01 35 1010.4
20260509071604 64 290 1.7 7.8 0.00 0.14 0.01 42 1010.4
20260509070049 64 304 0.9 9.6 0.00 0.14 0.01 41 1010.5
20260509064557 63 262 3.5 9.6 0.00 0.25 0.01 37 1010.2
20260509063046 63 275 3.5 10.4 0.00 0.25 0.01 42 1010.1
20260509061543 64 238 2.6 14.8 0.00 0.25 0.01 44 1009.9
20260509060037 63 267 2.6 11.3 0.00 0.25 0.01 43 1009.8
20260509054536 63 243 5.2 12.2 0.00 0.25 0.01 39 1009.9
20260509053030 64 285 1.7 9.6 0.00 0.25 0.01 46 1009.7
20260509051534 64 264 0.9 9.6 0.00 0.25 0.01 54 1009.7
20260509050023 62 255 0.9 11.3 0.00 0.25 0.01 56 1009.8
20260509044520 62 248 4.3 9.6 0.00 0.25 0.01 52 1009.8
20260509043019 60 304 1.7 11.3 0.00 0.25 0.01 58 1010.0
20260509041517 60 293 4.3 8.7 0.00 0.25 0.01 55 1010.1
20260509040014 60 252 4.3 10.4 0.00 0.25 0.01 52 1009.8
20260509034533 63 257 1.7 12.2 0.00 0.25 0.01 52 1009.6